X  Close Light rain starting later tonight, continuing until afternoon.
Conditions Temperature Feels Precipitation Wind Wind Direction UV index Pressure
00:00 cloudy Overcast 17° 0.26 mm 28% 30-44 km/h NNE NNE - 1007,7
01:00 cloudy Overcast 17° 0.42 mm 35% 30-47 km/h NNE NNE - 1007,4
02:00 cloudy Overcast 17° 0.29 mm 34% 31-47 km/h NNE NNE - 1006,7
03:00 cloudy Overcast 17° 0.12 mm 27% 32-46 km/h NE NE - 1005,8
04:00 cloudy Overcast 17° 0.08 mm 25% 32-46 km/h NE NE - 1005,1
05:00 cloudy Overcast 17° 0.16 mm 30% 33-49 km/h NE NE - 1004,4
06:00 cloudy Overcast 17° 0.31 mm 33% 34-53 km/h NE NE - 1004,0
07:00 cloudy Overcast 18° 0.38 mm 32% 35-55 km/h NNE NNE - 1003,5
08:00 wind Windy and Overcast 17° 0.21 mm 30% 44-53 km/h NE NE uv-1 1003,1
09:00 wind Windy and Overcast 18° 0.04 mm 15% 41-48 km/h NE NE uv-2 1002,8
10:00 cloudy Overcast 18° - 37-43 km/h NE NE uv-3 1002,1
11:00 cloudy Overcast 18° - 32-39 km/h NE NE uv-4 1001,9
12:00 cloudy Overcast 18° - 27-35 km/h NNE NNE uv-5 1001,4
13:00 cloudy Overcast 18° - 24-32 km/h NNE NNE uv-5 1000,9
14:00 cloudy Overcast 17° 0.05 mm 31% 22-32 km/h NE NE uv-5 1000,3
15:00 rain Possible Drizzle 17° 0.21 mm 60% 23-32 km/h NE NE uv-4 999,7
16:00 rain Light Rain 15° 0.47 mm 72% 23-29 km/h SW SW uv-4 999,1
17:00 rain Light Rain 15° 0.88 mm 79% 31-37 km/h West West uv-3 998,4
18:00 rain Light Rain 15° 1.48 mm 81% 36-49 km/h SSW SSW uv-2 997,8
19:00 rain Light Rain and Windy 15° 1.92 mm 80% 42-57 km/h WSW WSW uv-1 997,5
20:00 rain Light Rain 15° 1.85 mm 77% 34-58 km/h ENE ENE - 997,7
21:00 rain Possible Light Rain 15° 1.56 mm 68% 37-56 km/h SSW SSW - 998,1
22:00 rain Possible Light Rain 14° 1.3 mm 61% 39-55 km/h SW SW - 998,2
23:00 rain Possible Light Rain and Windy 14° 1.05 mm 57% 44-57 km/h WSW WSW - 997,9
00:00 rain Possible Light Rain and Windy 14° 0.82 mm 56% 50-60 km/h SW SW - 997,2
01:00 rain Possible Light Rain and Windy 14° 0.66 mm 54% 54-62 km/h SW SW - 996,6
02:00 rain Possible Light Rain and Windy 13° 0.49 mm 54% 57-61 km/h SW SW - 996,2
03:00 rain Possible Drizzle and Windy 13° 0.34 mm 56% 58-59 km/h SW SW - 995,8
04:00 rain Possible Drizzle and Windy 13° 0.3 mm 59% 59-59 km/h SW SW - 995,5
05:00 rain Possible Light Rain and Windy 12° 0.43 mm 64% 61-61 km/h SW SW - 995,9
06:00 rain Light Rain and Dangerously Windy 12° 0.72 mm 70% 64-64 km/h SW SW - 996,3
07:00 rain Light Rain and Dangerously Windy 12° 0.96 mm 71% 65-67 km/h SW SW - 996,9
08:00 rain Light Rain and Dangerously Windy 12° 0.95 mm 71% 63-65 km/h SW SW uv-1 997,5
09:00 rain Possible Light Rain and Windy 12° 0.81 mm 67% 61-61 km/h SW SW uv-2 998,4
10:00 rain Possible Light Rain and Windy 12° 0.67 mm 66% 59-59 km/h SW SW uv-3 999,2
11:00 rain Possible Light Rain and Windy 12° 0.62 mm 65% 58-58 km/h SW SW uv-4 1000,0
12:00 rain Light Rain and Windy 12° 0.6 mm 71% 57-57 km/h SW SW uv-4 1000,9
13:00 rain Possible Light Rain and Windy 13° 0.5 mm 62% 55-55 km/h SW SW uv-4 1001,6
14:00 rain Possible Drizzle and Windy 13° 0.24 mm 40% 52-52 km/h SW SW uv-5 1002,1
15:00 wind Windy and Partly Cloudy 14° 0.04 mm 15% 48-49 km/h SW SW uv-6 1002,5
16:00 wind Windy and Partly Cloudy 14° - 43-44 km/h SW SW uv-5 1002,9
17:00 clear-day Clear 14° - 34-35 km/h SW SW uv-4 1003,7
18:00 clear-day Clear 14° 0.02 mm 6% 24-24 km/h WSW WSW uv-2 1003,9
19:00 clear-day Clear 14° 0.05 mm 8% 17-17 km/h SW SW uv-1 1004,6
20:00 partly-cloudy-day Partly Cloudy 14° 0.06 mm 10% 14-15 km/h SSW SSW - 1005,7
21:00 partly-cloudy-night Mostly Cloudy 14° 0.06 mm 13% 15-16 km/h WNW WNW - 1006,8
22:00 cloudy Overcast 13° 0.05 mm 13% 15-17 km/h West West - 1007,8
23:00 cloudy Overcast 13° 0.04 mm 8% 15-16 km/h West West - 1008,4
00:00 cloudy Overcast 13° 0.02 mm 6% 16-16 km/h West West - 1008,8